| time (UTC) | temp F | wind direction | speed MPH | gust MPH | rain 1hr in | rain 24hr in | rain mn in | humidity % | barometer mb |
| 20260504200037 | 83 | 51 | 1.0 | 9.0 | 0.00 | 0.00 | 0.00 | 40 | 1014.6 |
| 20260504194534 | 83 | 13 | 0.0 | 5.0 | 0.00 | 0.00 | 0.00 | 42 | 1014.8 |
| 20260504193032 | 83 | 102 | 1.0 | 5.0 | 0.00 | 0.00 | 0.00 | 43 | 1015.0 |
| 20260504191529 | 82 | 64 | 3.0 | 9.0 | 0.00 | 0.00 | 0.00 | 43 | 1015.2 |
| 20260504190028 | 81 | 41 | 4.0 | 8.0 | 0.00 | 0.00 | 0.00 | 44 | 1015.3 |
| 20260504184526 | 81 | 42 | 4.0 | 8.0 | 0.00 | 0.00 | 0.00 | 45 | 1015.6 |
| 20260504183023 | 82 | 80 | 2.0 | 7.0 | 0.00 | 0.00 | 0.00 | 46 | 1015.9 |
| 20260504181521 | 82 | 50 | 1.0 | 9.0 | 0.00 | 0.00 | 0.00 | 47 | 1016.4 |
| 20260504180020 | 82 | 346 | 3.0 | 10.0 | 0.00 | 0.00 | 0.00 | 44 | 1016.4 |
| 20260504174520 | 82 | 70 | 2.0 | 9.0 | 0.00 | 0.00 | 0.00 | 48 | 1016.4 |
| 20260504173019 | 82 | 58 | 0.0 | 7.0 | 0.00 | 0.00 | 0.00 | 47 | 1016.6 |
| 20260504171517 | 82 | 82 | 1.0 | 8.0 | 0.00 | 0.00 | 0.00 | 50 | 1016.7 |
| 20260504081522 | 61 | 358 | 0.0 | 1.0 | 0.00 | 0.00 | 0.00 | 88 | 1016.4 |
| 20260504044605 | 65 | 14 | 0.0 | 0.0 | 0.00 | 0.00 | 0.00 | 84 | 1017.5 |
| 20260504043058 | 66 | 14 | 0.0 | 0.0 | 0.00 | 0.00 | 0.00 | 82 | 1017.8 |
| 20260504041553 | 67 | 14 | 0.0 | 1.0 | 0.00 | 0.00 | 0.00 | 80 | 1017.8 |
| 20260504040104 | 67 | 69 | 0.0 | 0.0 | 0.00 | 0.00 | 0.00 | 80 | 1018.0 |
| 20260504034610 | 67 | 69 | 0.0 | 2.0 | 0.00 | 0.00 | 0.00 | 79 | 1017.9 |
| 20260504033048 | 67 | 77 | 0.0 | 0.0 | 0.00 | 0.00 | 0.00 | 78 | 1018.0 |
| 20260504031547 | 68 | 74 | 0.0 | 0.0 | 0.00 | 0.00 | 0.00 | 77 | 1017.8 |
| 20260504030104 | 69 | 74 | 0.0 | 4.0 | 0.00 | 0.00 | 0.00 | 75 | 1017.6 |
| 20260504024554 | 69 | 68 | 0.0 | 3.0 | 0.00 | 0.00 | 0.00 | 75 | 1017.6 |
| 20260504023046 | 70 | 66 | 0.0 | 3.0 | 0.00 | 0.00 | 0.00 | 74 | 1017.6 |
| 20260504021550 | 70 | 33 | 0.0 | 0.0 | 0.00 | 0.00 | 0.00 | 75 | 1017.3 |
| 20260504020045 | 69 | 33 | 0.0 | 0.0 | 0.00 | 0.00 | 0.00 | 76 | 1017.2 |
| 20260504014544 | 69 | 21 | 0.0 | 0.0 | 0.00 | 0.00 | 0.00 | 74 | 1017.0 |
| 20260504013050 | 70 | 21 | 0.0 | 1.0 | 0.00 | 0.00 | 0.00 | 71 | 1016.7 |
| 20260504011544 | 71 | 354 | 0.0 | 1.0 | 0.00 | 0.00 | 0.00 | 69 | 1016.4 |
| 20260504010043 | 71 | 311 | 0.0 | 1.0 | 0.00 | 0.00 | 0.00 | 69 | 1016.3 |
| 20260504004543 | 72 | 82 | 0.0 | 3.0 | 0.00 | 0.00 | 0.00 | 66 | 1016.0 |
| 20260504003042 | 72 | 46 | 0.0 | 1.0 | 0.00 | 0.00 | 0.00 | 67 | 1016.0 |
| 20260504001557 | 72 | 78 | 0.0 | 1.0 | 0.00 | 0.00 | 0.00 | 66 | 1015.7 |
| 20260504000040 | 73 | 79 | 0.0 | 1.0 | 0.00 | 0.00 | 0.00 | 63 | 1015.6 |
| 20260503234540 | 75 | 108 | 0.0 | 1.0 | 0.00 | 0.00 | 0.00 | 60 | 1015.4 |
| 20260503233040 | 76 | 47 | 0.0 | 4.0 | 0.00 | 0.00 | 0.00 | 57 | 1015.6 |
| 20260503231539 | 77 | 320 | 0.0 | 2.0 | 0.00 | 0.00 | 0.00 | 57 | 1015.4 |
| 20260503230040 | 78 | 40 | 1.0 | 5.0 | 0.00 | 0.00 | 0.00 | 52 | 1015.3 |
| 20260503224538 | 78 | 63 | 1.0 | 4.0 | 0.00 | 0.00 | 0.00 | 54 | 1015.3 |
| 20260503223038 | 78 | 69 | 0.0 | 4.0 | 0.00 | 0.00 | 0.00 | 56 | 1015.4 |
| 20260503221543 | 78 | 56 | 0.0 | 3.0 | 0.00 | 0.00 | 0.00 | 54 | 1015.6 |
| 20260503220036 | 79 | 348 | 2.0 | 6.0 | 0.00 | 0.01 | 0.00 | 51 | 1015.6 |
| 20260503214538 | 80 | 85 | 0.0 | 5.0 | 0.00 | 0.01 | 0.00 | 51 | 1015.5 |
| 20260503213042 | 80 | 61 | 1.0 | 5.0 | 0.00 | 0.01 | 0.00 | 51 | 1015.4 |
| 20260503211537 | 80 | 70 | 5.0 | 9.0 | 0.00 | 0.01 | 0.00 | 50 | 1015.4 |
| 20260503210034 | 81 | 129 | 1.0 | 8.0 | 0.00 | 0.07 | 0.00 | 52 | 1015.5 |
| 20260503204534 | 80 | 96 | 1.0 | 5.0 | 0.00 | 0.07 | 0.00 | 49 | 1015.5 |
| 20260503203032 | 79 | 79 | 3.0 | 10.0 | 0.00 | 0.07 | 0.00 | 49 | 1015.7 |
| 20260503201530 | 81 | 41 | 0.0 | 3.0 | 0.00 | 0.07 | 0.00 | 53 | 1016.0 |